Location: Christchurch
(43.5330°S, 172.6330°E)
Time: 03:29:04
(UTC+13:00)

BREEZE-M DEB (TANK) - Pass Details

Date: 24 January 2019
Orbit: 302 x 13846 km, 49.6° (Epoch: 18 February)

Event Time Altitude Azimuth Distance (km) Brightness Sun altitude
Rises 23:36:08 0° 278° (W) 5,444 8.2 -21.0°
Reaches altitude 10° 23:41:21 10° 271° (W) 3,082 7.0 -21.5°
Maximum altitude 23:46:54 39° 201° (SSW) 810 4.2 -22.0°
Enters shadow 23:48:57 15° 133° (SE) 1,194 4.7 -22.1°
